Leadville, CO

10:04 AM MDT on September 24, 2017 (GMT -0600)
Lake County

Weather History for KLXV - May, 2014

Change the Weather History Date:

Tuesday, May 6, 2014

  Actual Average Record
Temperature  
Mean Temperature 42 °F -  
Max Temperature 55 °F 51 °F 64 °F (2004)
Min Temperature 28 °F 25 °F 9 °F (1999)
Degree Days  
Heating Degree Days 23 27  
Month to date heating degree days 152 169  
Since 1 July heating degree days 10038 10170  
Cooling Degree Days 0 0  
Month to date cooling degree days 0 0  
Year to date cooling degree days 0 0  
Moisture  
Dew Point 9 °F    
Average Humidity 32    
Maximum Humidity 53    
Minimum Humidity 11    
Precipitation  
Precipitation 0.00 in 0.03 in 0.29 in (2013)
Month to date precipitation 0.00 0.19  
Year to date precipitation 6.71 3.52  
Sea Level Pressure  
Sea Level Pressure 29.51 in    
Wind  
Wind Speed 9 mph (SSW)    
Max Wind Speed 24 mph    
Max Gust Speed 33 mph    
Visibility 10 miles    
Events      
T = Trace of Precipitation, MM = Missing Value Source: NWS Daily Summary

Daily Weather History Graph

Daily Weather History Graph

Search for Another Location

Airport or City:

Trip Planner

Search our weather history database for the weather conditions in past years. The results will help you decide how hot, cold, wet, or windy it might be!

Date:

Astronomy

May. 06, 2014 Rise Set
Actual Time 6:00 AM MDT 8:03 PM MDT
Civil Twilight 5:31 AM MDT 8:32 PM MDT
Nautical Twilight 4:55 AM MDT 9:08 PM MDT
Astronomical Twilight 4:17 AM MDT 9:47 PM MDT
Moon 12:19 PM MDT (5/6) 1:24 AM MDT (5/6)
Length of Visible Light 15h 01m
Length of Day
14h 02m
Waxing Crescent, 46% of the Moon is Illuminated
May 6
Waxing Crescent
May 6
First Quarter
May 14
Full
May 21
Last Quarter
May 28
New

Hourly Weather History & Observations

Time (MDT) Temp. Windchill Dew Point Humidity Pressure Visibility Wind Dir Wind Speed Gust Speed Precip Events Conditions
12:53 AM 37.9 °F - 9.0 °F 30% 29.64 in 10.0 mi Calm Calm - N/A   Clear
1:53 AM 35.1 °F 30.1 °F 10.9 °F 37% 29.61 in 10.0 mi NE 5.8 mph - N/A   Clear
5:53 AM 28.0 °F 20.8 °F 14.0 °F 56% 29.62 in 10.0 mi East 6.9 mph - N/A   Clear
6:53 AM 30.0 °F - 15.1 °F 54% 29.62 in 10.0 mi Calm Calm - N/A   Clear
8:53 AM 44.1 °F 39.0 °F 12.9 °F 28% 29.57 in 10.0 mi South 9.2 mph - N/A   Clear
9:53 AM 46.9 °F - 10.0 °F 22% 29.56 in 10.0 mi South 16.1 mph 20.7 mph N/A   Clear
10:53 AM 48.9 °F - 9.0 °F 20% 29.49 in 10.0 mi WSW 13.8 mph - N/A   Clear
11:53 AM 52.0 °F - 7.0 °F 16% 29.49 in 10.0 mi West 12.7 mph 18.4 mph N/A   Partly Cloudy
12:53 PM 52.0 °F - 7.0 °F 16% 29.47 in 10.0 mi South 20.7 mph 27.6 mph N/A   Partly Cloudy
1:53 PM 54.0 °F - 3.0 °F 13% 29.47 in 10.0 mi SSW 19.6 mph 26.5 mph N/A   Clear
2:53 PM 53.1 °F - 3.0 °F 13% 29.41 in 10.0 mi SSW 15.0 mph 25.3 mph N/A   Partly Cloudy
3:53 PM 54.0 °F - 3.0 °F 13% 29.42 in 10.0 mi SSW 17.3 mph 27.6 mph N/A   Partly Cloudy
4:53 PM 53.1 °F - -0.0 °F 11% 29.42 in 10.0 mi South 19.6 mph 27.6 mph N/A   Partly Cloudy
5:53 PM 51.1 °F - 3.0 °F 14% 29.49 in 10.0 mi WSW 11.5 mph - N/A   Partly Cloudy
6:53 PM 50.0 °F - 6.1 °F 17% 29.50 in 10.0 mi SW 9.2 mph - N/A   Clear
7:53 PM 46.0 °F 41.9 °F 9.0 °F 22% 29.48 in 10.0 mi SW 8.1 mph - N/A   Clear
8:53 PM 43.0 °F 38.2 °F 10.0 °F 26% 29.48 in 10.0 mi SW 8.1 mph - N/A   Clear
9:53 PM 37.0 °F 31.6 °F 12.0 °F 36% 29.52 in 10.0 mi ESE 6.9 mph - N/A   Clear
10:53 PM 34.0 °F - 12.9 °F 42% 29.50 in 10.0 mi Calm Calm - N/A   Clear
11:53 PM 34.0 °F - 15.1 °F 46% 29.49 in 10.0 mi Calm Calm - N/A   Clear